Weather History for Crosby, ND

Change the Weather History Date:

Friday, August 23, 2013

  Actual Average (KISN) Record (KISN)
Temperature  
Mean Temperature 74 °F 67 °F  
Max Temperature 86 °F 82 °F 103 °F (1937)
Min Temperature 62 °F 52 °F 35 °F (1928)
Degree Days  
Heating Degree Days 0 2  
Month to date heating degree days 27  
Since 1 June heating degree days 171  
Since 1 July heating degree days 51  
Cooling Degree Days 9 4  
Month to date cooling degree days 139  
Year to date cooling degree days 402  
Since 1 June cooling degree days 389  
Growing Degree Days 24 (Base 50)    
Moisture  
Dew Point 62 °F    
Average Humidity 70    
Maximum Humidity 100    
Minimum Humidity 51    
Precipitation  
Precipitation 0.00 in 0.04 in 1.33 in (1968)
Month to date precipitation 1.09  
Year to date precipitation 10.76  
Snow  
Snow 0.00 in 0.00 in 0.00 in (2002)
Month to date snowfall 0.0  
Since 1 June snowfall 0.0  
Since 1 July snowfall 0.0  
Snow Depth -    
Sea Level Pressure  
Sea Level Pressure 29.84 in    
Wind  
Wind Speed 10 mph (SSE)    
Max Wind Speed 15 mph    
Max Gust Speed 21 mph    
Visibility 10 miles    
Events      
T = Trace of Precipitation, MM = Missing Value Source: NWS Daily Summary

Daily Weather History Graph

Daily Weather History Graph

Search for Another Location

Airport:

Trip Planner

Search our weather history database for the weather conditions in past years. The results will help you decide how hot, cold, wet, or windy it might be!

Date:

Astronomy

Aug. 23, 2013 Rise Set
Actual Time 6:57 AM CDT 8:52 PM CDT
Civil Twilight 6:23 AM CDT 9:26 PM CDT
Nautical Twilight 5:41 AM CDT 10:08 PM CDT
Astronomical Twilight 4:55 AM CDT 10:54 PM CDT
Moon 9:49 PM CDT (8/23) 10:16 AM CDT (8/23)
Length of Visible Light 15h 03m
Length of Day
13h 55m
Waning Gibbous, 91% of the Moon is Illuminated
Aug 23
Waning Gibbous
Aug 28
Last Quarter
Sep 5
New
Sep 12
First Quarter
Sep 19
Full

Hourly Weather History & Observations

Time (CDT) Temp. Heat Index Dew Point Humidity Pressure Visibility Wind Dir Wind Speed Gust Speed Precip Events Conditions
12:15 AM 62.6 °F - 50.0 °F 63% 30.00 in 10.0 mi SE 9.2 mph - N/A   Clear
12:35 AM 62.6 °F - 50.0 °F 63% 30.00 in 10.0 mi SE 8.1 mph - N/A   Clear
12:55 AM 62.6 °F - 50.0 °F 63% 30.00 in 10.0 mi SE 5.8 mph - N/A   Clear
1:15 AM 62.6 °F - 51.8 °F 68% 29.99 in 10.0 mi SSE 6.9 mph - N/A   Clear
1:35 AM 62.6 °F - 51.8 °F 68% 29.98 in 10.0 mi SSE 6.9 mph - N/A   Clear
1:55 AM 62.6 °F - 51.8 °F 68% 29.98 in 10.0 mi SSE 8.1 mph - N/A   Clear
2:15 AM 62.6 °F - 51.8 °F 68% 29.97 in 10.0 mi South 9.2 mph - N/A   Clear
2:55 AM 62.6 °F - 53.6 °F 72% 29.96 in 10.0 mi South 10.4 mph - N/A   Clear
3:15 AM 62.6 °F - 53.6 °F 72% 29.95 in 10.0 mi South 12.7 mph - N/A   Partly Cloudy
3:35 AM 62.6 °F - 55.4 °F 77% 29.95 in 10.0 mi South 10.4 mph - N/A   Clear
3:55 AM 62.6 °F - 55.4 °F 77% 29.94 in 10.0 mi South 13.8 mph 18.4 mph N/A   Clear
4:15 AM 62.6 °F - 55.4 °F 77% 29.94 in 10.0 mi South 11.5 mph - N/A   Clear
4:35 AM 62.6 °F - 53.6 °F 72% 29.93 in 10.0 mi South 12.7 mph - N/A   Clear
4:55 AM 62.6 °F - 55.4 °F 77% 29.93 in 10.0 mi South 13.8 mph 18.4 mph N/A   Clear
5:15 AM 64.4 °F - 55.4 °F 73% 29.92 in 10.0 mi South 11.5 mph - N/A   Clear
5:35 AM 62.6 °F - 55.4 °F 77% 29.91 in 10.0 mi South 11.5 mph - N/A   Clear
5:55 AM 62.6 °F - 55.4 °F 77% 29.91 in 10.0 mi South 12.7 mph - N/A   Clear
6:15 AM 62.6 °F - 55.4 °F 77% 29.91 in 10.0 mi South 12.7 mph 19.6 mph N/A   Clear
6:35 AM 62.6 °F - 55.4 °F 77% 29.90 in 10.0 mi South 12.7 mph 18.4 mph N/A   Clear
6:55 AM 62.6 °F - 55.4 °F 77% 29.90 in 10.0 mi South 10.4 mph - N/A   Clear
7:15 AM 62.6 °F - 55.4 °F 77% 29.90 in 10.0 mi South 11.5 mph - N/A   Clear
7:35 AM 62.6 °F - 57.2 °F 82% 29.90 in 10.0 mi South 12.7 mph 20.7 mph N/A   Clear
7:55 AM 62.6 °F - 57.2 °F 82% 29.90 in 10.0 mi South 10.4 mph - N/A   Clear
8:15 AM 62.6 °F - 57.2 °F 82% 29.90 in 10.0 mi South 10.4 mph - N/A   Clear
8:35 AM 64.4 °F - 57.2 °F 77% 29.89 in 10.0 mi South 12.7 mph - N/A   Clear
8:55 AM 66.2 °F - 59.0 °F 78% 29.89 in 10.0 mi South 12.7 mph 16.1 mph N/A   Clear
9:15 AM 66.2 °F - 59.0 °F 78% 29.89 in 10.0 mi South 11.5 mph 17.3 mph N/A   Clear
9:35 AM 68.0 °F - 59.0 °F 73% 29.88 in 10.0 mi South 15.0 mph - N/A   Clear
9:55 AM 69.8 °F - 59.0 °F 68% 29.87 in 10.0 mi South 11.5 mph - N/A   Clear
10:15 AM 71.6 °F - 59.0 °F 64% 29.87 in 10.0 mi South 12.7 mph - N/A   Clear
10:35 AM 73.4 °F - 60.8 °F 65% 29.86 in 10.0 mi South 13.8 mph 18.4 mph N/A   Clear
10:55 AM 75.2 °F - 62.6 °F 65% 29.86 in 10.0 mi South 13.8 mph - N/A   Clear
11:15 AM 75.2 °F - 62.6 °F 65% 29.86 in 10.0 mi South 12.7 mph 18.4 mph N/A   Clear
11:35 AM 77.0 °F - 62.6 °F 61% 29.85 in 10.0 mi South 10.4 mph - N/A   Clear
11:55 AM 77.0 °F - 62.6 °F 61% 29.84 in 10.0 mi SSE 11.5 mph 16.1 mph N/A   Clear
12:15 PM 78.8 °F - 62.6 °F 57% 29.84 in 10.0 mi South 8.1 mph - N/A   Clear
12:35 PM 77.0 °F - 62.6 °F 61% 29.84 in 10.0 mi SSE 10.4 mph - N/A   Unknown
12:55 PM 77.0 °F - 64.4 °F 65% 29.83 in 10.0 mi SE 11.5 mph 16.1 mph N/A   Unknown
1:15 PM 78.8 °F - 64.4 °F 61% 29.83 in 10.0 mi South 12.7 mph 16.1 mph N/A   Unknown
1:35 PM 78.8 °F - 64.4 °F 61% 29.83 in 10.0 mi SSE 12.7 mph - N/A   Unknown
1:55 PM 80.6 °F 82.3 °F 64.4 °F 58% 29.82 in 10.0 mi SSE 11.5 mph - N/A   Unknown
2:15 PM 80.6 °F 82.3 °F 64.4 °F 58% 29.82 in 10.0 mi SSE 10.4 mph 17.3 mph N/A   Unknown
2:35 PM 80.6 °F 82.3 °F 64.4 °F 58% 29.82 in 10.0 mi South 6.9 mph - N/A   Unknown
2:55 PM 82.4 °F 83.9 °F 64.4 °F 54% 29.81 in 10.0 mi SSE 11.5 mph - N/A   Unknown
3:15 PM 82.4 °F 83.9 °F 64.4 °F 54% 29.81 in 10.0 mi SSE 10.4 mph - N/A   Unknown
3:35 PM 82.4 °F 83.9 °F 64.4 °F 54% 29.80 in 10.0 mi SSE 11.5 mph 16.1 mph N/A   Unknown
3:55 PM 82.4 °F 83.9 °F 64.4 °F 54% 29.79 in 10.0 mi SSE 15.0 mph 19.6 mph N/A   Unknown
4:15 PM 84.2 °F 85.6 °F 64.4 °F 51% 29.79 in 10.0 mi SSE 11.5 mph 19.6 mph N/A   Unknown
4:35 PM 84.2 °F 85.6 °F 64.4 °F 51% 29.78 in 10.0 mi SSE 11.5 mph - N/A   Unknown
4:55 PM 82.4 °F 84.6 °F 66.2 °F 58% 29.78 in 10.0 mi SSE 9.2 mph - N/A   Unknown
5:15 PM 82.4 °F 84.6 °F 66.2 °F 58% 29.77 in 10.0 mi SSE 9.2 mph - N/A   Unknown
5:35 PM 84.2 °F 86.6 °F 66.2 °F 55% 29.76 in 10.0 mi SSE 8.1 mph - N/A   Unknown
5:55 PM 84.2 °F 87.3 °F 68.0 °F 58% 29.76 in 9.0 mi SE 6.9 mph - N/A   Unknown
6:15 PM 84.2 °F 86.6 °F 66.2 °F 55% 29.75 in 10.0 mi SSE 10.4 mph - N/A   Unknown
6:35 PM 86.0 °F 88.2 °F 66.2 °F 51% 29.75 in 10.0 mi SSE 9.2 mph - N/A   Unknown
6:55 PM 86.0 °F 88.2 °F 66.2 °F 51% 29.74 in 10.0 mi SSE 9.2 mph - N/A   Unknown
7:15 PM 84.2 °F 86.6 °F 66.2 °F 55% 29.73 in 10.0 mi SE 9.2 mph - N/A   Unknown
7:35 PM 84.2 °F 87.3 °F 68.0 °F 58% 29.73 in 10.0 mi ESE 5.8 mph - N/A   Unknown
7:55 PM 82.4 °F 86.3 °F 69.8 °F 66% 29.73 in 10.0 mi East 5.8 mph - N/A   Unknown
8:15 PM 80.6 °F 84.6 °F 71.6 °F 74% 29.73 in 10.0 mi East 6.9 mph - N/A   Unknown
8:35 PM 77.0 °F - 73.4 °F 89% 29.73 in 10.0 mi East 6.9 mph - N/A   Unknown
8:55 PM 75.2 °F - 73.4 °F 94% 29.73 in 9.0 mi East 5.8 mph - N/A   Unknown
9:15 PM 73.4 °F - 73.4 °F 100% 29.73 in 10.0 mi East 5.8 mph - N/A   Unknown
9:35 PM 73.4 °F - 73.4 °F 100% 29.74 in 10.0 mi East 4.6 mph - N/A   Unknown
9:55 PM 71.6 °F - 71.6 °F 100% 29.73 in 10.0 mi East 5.8 mph - N/A   Unknown
10:15 PM 71.6 °F - 71.6 °F 100% 29.73 in 10.0 mi SE 5.8 mph - N/A   Unknown
10:35 PM 71.6 °F - 69.8 °F 94% 29.73 in 10.0 mi SSE 4.6 mph - N/A   Unknown
10:55 PM 71.6 °F - 69.8 °F 94% 29.73 in 10.0 mi SSE 6.9 mph - N/A   Unknown
11:15 PM 75.2 °F - 68.0 °F 78% 29.72 in 10.0 mi SSE 11.5 mph 17.3 mph N/A   Unknown
11:35 PM 75.2 °F - 66.2 °F 73% 29.71 in 10.0 mi South 11.5 mph 17.3 mph N/A   Unknown
11:55 PM 75.2 °F - 66.2 °F 73% 29.71 in 10.0 mi South 10.4 mph - N/A   Unknown